| time (UTC) | temp C | wind direction | speed KPH | gust KPH | rain 1hr cm | rain 24hr cm | rain mn cm | humidity % | barometer mb |
| 20260504081526 | 11 | 141 | 0.0 | 0.0 | 0.00 | 0.00 | 0.00 | 94 | 1017.8 |
| 20260504044525 | 13 | 141 | 0.0 | 0.0 | 0.00 | 0.00 | 0.00 | 88 | 1019.3 |
| 20260504043030 | 13 | 141 | 0.0 | 0.0 | 0.00 | 0.00 | 0.00 | 88 | 1019.5 |
| 20260504041529 | 13 | 141 | 0.0 | 0.0 | 0.00 | 0.00 | 0.00 | 89 | 1019.4 |
| 20260504040020 | 13 | 141 | 0.0 | 0.0 | 0.00 | 0.00 | 0.00 | 89 | 1019.4 |
| 20260504034526 | 13 | 141 | 0.0 | 0.0 | 0.00 | 0.00 | 0.00 | 87 | 1019.4 |
| 20260504033030 | 13 | 141 | 0.0 | 0.0 | 0.00 | 0.00 | 0.00 | 87 | 1019.4 |
| 20260504031530 | 13 | 141 | 0.0 | 0.0 | 0.00 | 0.00 | 0.00 | 87 | 1019.4 |
| 20260504030017 | 14 | 141 | 0.0 | 0.0 | 0.00 | 0.00 | 0.00 | 85 | 1019.4 |
| 20260504024524 | 14 | 141 | 0.0 | 0.0 | 0.00 | 0.00 | 0.00 | 84 | 1019.1 |
| 20260504023025 | 15 | 141 | 0.0 | 0.0 | 0.00 | 0.00 | 0.00 | 83 | 1018.8 |
| 20260504021509 | 15 | 142 | 0.0 | 0.0 | 0.00 | 0.00 | 0.00 | 80 | 1018.7 |
| 20260504020016 | 16 | 141 | 0.0 | 0.0 | 0.00 | 0.00 | 0.00 | 78 | 1018.5 |
| 20260504014524 | 16 | 141 | 0.0 | 0.0 | 0.00 | 0.00 | 0.00 | 75 | 1018.6 |
| 20260504013023 | 17 | 141 | 0.0 | 0.0 | 0.00 | 0.00 | 0.00 | 74 | 1018.3 |
| 20260504011524 | 17 | 228 | 0.0 | 0.0 | 0.00 | 0.00 | 0.00 | 71 | 1018.1 |
| 20260504010009 | 18 | 228 | 0.0 | 0.0 | 0.00 | 0.00 | 0.00 | 68 | 1018.1 |
| 20260504004519 | 19 | 227 | 0.0 | 0.0 | 0.00 | 0.00 | 0.00 | 63 | 1018.1 |
| 20260504003021 | 21 | 229 | 0.0 | 0.0 | 0.00 | 0.00 | 0.00 | 54 | 1017.9 |
| 20260504001525 | 22 | 165 | 0.0 | 4.8 | 0.00 | 0.00 | 0.00 | 47 | 1017.9 |
| 20260504000025 | 23 | 140 | 1.6 | 6.4 | 0.00 | 0.00 | 0.00 | 45 | 1017.8 |
| 20260503234512 | 23 | 225 | 1.6 | 8.0 | 0.00 | 0.00 | 0.00 | 43 | 1017.8 |
| 20260503233026 | 23 | 248 | 3.2 | 11.3 | 0.00 | 0.00 | 0.00 | 44 | 1018.0 |
| 20260503231522 | 23 | 281 | 3.2 | 9.7 | 0.00 | 0.00 | 0.00 | 43 | 1018.0 |
| 20260503230028 | 23 | 217 | 3.2 | 11.3 | 0.00 | 0.00 | 0.00 | 42 | 1018.0 |
| 20260503224530 | 23 | 264 | 4.8 | 11.3 | 0.00 | 0.00 | 0.00 | 43 | 1018.2 |
| 20260503223013 | 24 | 223 | 3.2 | 12.9 | 0.00 | 0.00 | 0.00 | 41 | 1018.2 |
| 20260503221526 | 23 | 253 | 6.4 | 12.9 | 0.00 | 0.00 | 0.00 | 41 | 1018.3 |
| 20260503220024 | 24 | 257 | 4.8 | 11.3 | 0.00 | 0.00 | 0.00 | 40 | 1018.5 |
| 20260503214526 | 24 | 249 | 4.8 | 9.7 | 0.00 | 0.00 | 0.00 | 38 | 1018.6 |
| 20260503213030 | 24 | 146 | 3.2 | 12.9 | 0.00 | 0.00 | 0.00 | 39 | 1018.8 |
| 20260503211516 | 25 | 139 | 4.8 | 9.7 | 0.00 | 0.00 | 0.00 | 38 | 1018.9 |
| 20260503210021 | 24 | 215 | 4.8 | 12.9 | 0.00 | 0.00 | 0.00 | 39 | 1019.1 |
| 20260503204526 | 23 | 202 | 3.2 | 17.7 | 0.00 | 0.00 | 0.00 | 39 | 1019.3 |
| 20260503203028 | 24 | 163 | 6.4 | 16.1 | 0.00 | 0.00 | 0.00 | 39 | 1019.6 |
| 20260503201528 | 25 | 262 | 3.2 | 9.7 | 0.00 | 0.00 | 0.00 | 37 | 1019.7 |
| 20260503200019 | 24 | 283 | 4.8 | 11.3 | 0.00 | 0.00 | 0.00 | 38 | 1020.1 |
| 20260503194524 | 24 | 300 | 1.6 | 12.9 | 0.00 | 0.00 | 0.00 | 38 | 1020.3 |
| 20260503193027 | 24 | 212 | 8.0 | 16.1 | 0.00 | 0.00 | 0.00 | 36 | 1020.5 |
| 20260503191530 | 23 | 246 | 11.3 | 17.7 | 0.00 | 0.00 | 0.00 | 37 | 1020.8 |
| 20260503190030 | 24 | 159 | 4.8 | 9.7 | 0.00 | 0.00 | 0.00 | 35 | 1020.8 |
| 20260503184521 | 24 | 190 | 1.6 | 11.3 | 0.00 | 0.00 | 0.00 | 35 | 1021.1 |
| 20260503183025 | 24 | 356 | 3.2 | 14.5 | 0.00 | 0.00 | 0.00 | 34 | 1021.4 |
| 20260503181527 | 24 | 219 | 3.2 | 6.4 | 0.00 | 0.00 | 0.00 | 33 | 1021.5 |
| 20260503180030 | 23 | 89 | 6.4 | 12.9 | 0.00 | 0.00 | 0.00 | 34 | 1021.7 |
| 20260503174515 | 23 | 97 | 4.8 | 17.7 | 0.00 | 0.00 | 0.00 | 35 | 1021.8 |
| 20260503173027 | 23 | 313 | 3.2 | 12.9 | 0.00 | 0.00 | 0.00 | 35 | 1022.1 |
| 20260503171506 | 23 | 337 | 4.8 | 14.5 | 0.00 | 0.00 | 0.00 | 36 | 1022.3 |